[[{"header":{"parameterUnit":"m.s-1","parameterCategory":1,"la1":30.2992,"la2":30.254,"lo1":-89.0895,"lo2":-89.0443,"dy":0.0025,"dx":0.0025,"nx":19,"ny":19,"refTime":"2026-04-01T03:00:00:Z","depth":0,"parameterNumber":2,"parameterNumberName":"U-component_of_WINDS"},"data":[0,0,0,-3.8324,-3.8328,-3.8505,-3.8506,-3.8728,-3.873,0,0,0,0,0,0,0,0,0,0,0,-3.8269,-3.827,-3.8324,-3.8328,-3.8505,-3.8506,-3.8728,-3.873,0,0,0,0,0,0,0,0,0,0,0,-3.8268,-3.827,-3.8272,-3.8329,-3.8505,-3.8506,-3.8727,-3.8595,0,0,0,0,0,0,0,0,0,0,-3.8424,-3.837,-3.827,-3.8272,-3.833,-3.8505,-3.8506,-3.8589,-3.8603,-3.8646,0,-3.8683,0,-3.871,-3.8745,-3.8745,0,0,0,-3.833,-3.8358,-3.8409,-3.8272,-3.8332,-3.8505,-3.8426,-3.8597,-3.8614,-3.8665,-3.8686,-3.8695,-3.8714,-3.8746,-3.8747,-3.8987,-3.8988,0,0,-3.832,-3.8299,-3.8397,-3.8419,-3.8392,-3.842,-3.8431,-3.8607,-3.8629,-3.8687,-3.87,-3.8718,-3.8748,-3.8749,-3.8986,-3.8987,0,0,0,-3.8291,-3.8292,-3.8339,-3.841,-3.8442,-3.8425,-3.8438,-3.8621,-3.8638,-3.8703,-3.872,-3.8749,-3.8752,-3.8985,-3.8986,-3.9015,0,0,0,-3.8285,-3.8275,-3.8334,-3.8323,-3.8439,-3.8534,-3.8448,-3.8625,-3.8646,-3.8719,-3.8749,-3.8754,-3.8984,-3.8986,-3.9012,-3.9032,0,0,0,-3.8258,-3.8272,-3.8297,-3.8322,-3.8397,-3.8531,-3.8558,-3.863,-3.8657,-3.8746,-3.8754,-3.8983,-3.8985,-3.9009,-3.9027,-3.9088,0,0,0,-3.8223,-3.832,-3.8297,-3.8413,-3.8395,-3.8549,-3.8557,-3.8673,-3.8753,-3.875,-3.8984,-3.8986,-3.9009,-3.9024,-3.9084,-3.9133,-3.9151,0,0,-3.8334,-3.8333,-3.8403,-3.8387,-3.8539,-3.8523,-3.868,-3.8773,-3.8801,-3.8923,-3.893,-3.9013,-3.9027,-3.9087,-3.9269,-3.9283,0,0,0,-3.8431,-3.848,-3.8525,-3.86,-3.8674,-3.8739,-3.8811,-3.8846,-3.8951,-3.886,-3.9054,-3.9062,-3.9098,-3.9122,-3.9135,-3.9166,-3.8997,-3.8997,-3.8997,-3.8554,-3.8586,-3.8703,-3.8756,-3.8829,-3.8903,-3.8965,-3.9024,-3.9034,-3.908,-3.9115,-3.9222,-3.9249,-3.9258,-3.9291,-3.9146,-3.9146,-3.9146,-3.9146,-3.8717,-3.8791,-3.8804,-3.8922,-3.8955,-3.9054,-3.913,-3.9134,-3.9231,-3.9197,-3.9231,-3.9188,-3.9274,-3.9304,-3.9148,-3.9148,-3.9148,-3.9147,-3.9147,-3.8799,-3.884,-3.8882,-3.8994,-3.9078,-3.913,-3.9222,-3.925,-3.9276,-3.9309,-3.9349,-3.9348,-3.9349,-3.9327,-3.9327,-3.9328,-3.9328,-3.9328,-3.9329,-3.8866,-3.8913,-3.8988,-3.9076,-3.9128,-3.9201,-3.9278,-3.933,-3.9395,-3.9407,-3.9408,-3.9412,-3.9277,-3.9241,-3.9334,-3.9333,-3.9333,-3.9332,-3.9332,-3.9015,-3.8986,-3.9101,-3.9154,-3.926,-3.9341,-3.9376,-3.9481,-3.9528,-3.9573,-3.9573,-3.9469,-3.9469,-3.946,-3.943,-3.9566,-3.9566,-3.9566,-3.9566,-3.9082,-3.9086,-3.921,-3.9292,-3.9376,-3.942,-3.9549,-3.9611,-3.967,-3.9702,-3.9687,-3.9651,-3.964,-3.9647,-3.9633,-3.9605,-3.9784,-3.9784,-3.9784,-3.9174,-3.9188,-3.9291,-3.9349,-3.9435,-3.9508,-3.9631,-3.9725,-3.9786,-3.9793,-3.9727,-3.9717,-3.966,-3.964,-3.9641,-3.9619,-3.9569,0,0]},{"header":{"parameterUnit":"m.s-1","parameterCategory":1,"la1":30.2992,"la2":30.254,"lo1":-89.0895,"lo2":-89.0443,"dy":0.0025,"dx":0.0025,"nx":19,"ny":19,"refTime":"2026-04-01T03:00:00:Z","depth":0,"parameterNumber":3,"parameterNumberName":"V-component_of_WINDS"},"data":[0,0,0,3.1413,3.1415,3.1507,3.1508,3.1627,3.1628,0,0,0,0,0,0,0,0,0,0,0,3.1387,3.1388,3.1413,3.1415,3.1507,3.1508,3.1627,3.1628,0,0,0,0,0,0,0,0,0,0,0,3.1387,3.1388,3.1389,3.1415,3.1507,3.1508,3.1626,3.1556,0,0,0,0,0,0,0,0,0,0,3.1466,3.1444,3.1387,3.1389,3.1416,3.1507,3.1508,3.1553,3.156,3.1586,0,3.161,0,3.1621,3.1636,3.1637,0,0,0,3.1413,3.1438,3.1461,3.1389,3.1417,3.1507,3.1465,3.1557,3.1566,3.1596,3.1612,3.1616,3.1623,3.1637,3.1638,3.1795,3.1796,0,0,3.1408,3.1404,3.1455,3.1467,3.1454,3.1462,3.1468,3.1562,3.1578,3.1612,3.1619,3.1625,3.1638,3.1639,3.1794,3.1795,0,0,0,3.1395,3.1401,3.1422,3.1462,3.1479,3.1465,3.1472,3.1574,3.1581,3.162,3.1627,3.1638,3.164,3.1794,3.1795,3.1833,0,0,0,3.1391,3.1393,3.142,3.1418,3.1477,3.1528,3.1481,3.1575,3.1586,3.1626,3.1639,3.1641,3.1793,3.1794,3.183,3.1852,0,0,0,3.138,3.1391,3.1406,3.1418,3.1458,3.1526,3.1539,3.1577,3.159,3.1637,3.1641,3.1792,3.1794,3.1828,3.1847,3.1894,0,0,0,3.1367,3.1436,3.1406,3.1486,3.1457,3.155,3.1539,3.1607,3.1652,3.1639,3.1793,3.1795,3.1827,3.1845,3.1891,3.1932,3.1949,0,0,3.1452,3.1446,3.1494,3.147,3.1568,3.1536,3.1639,3.1683,3.1689,3.1759,3.1763,3.1831,3.1847,3.1893,3.2044,3.2057,0,0,0,3.152,3.1554,3.1581,3.1625,3.1661,3.1695,3.1723,3.174,3.18,3.1725,3.186,3.187,3.1897,3.1917,3.1928,3.1952,3.1804,3.1803,3.1803,3.1635,3.1642,3.1722,3.1741,3.1784,3.1814,3.1849,3.1876,3.1869,3.1901,3.1922,3.2013,3.2036,3.2045,3.207,3.1944,3.1944,3.1944,3.1944,3.1761,3.1812,3.1804,3.1878,3.1885,3.1947,3.198,3.1973,3.2032,3.1997,3.2021,3.1983,3.2059,3.2081,3.1947,3.1946,3.1946,3.1946,3.1946,3.1838,3.1864,3.1884,3.195,3.2,3.2016,3.2074,3.2078,3.2081,3.2105,3.2129,3.2128,3.2129,3.2116,3.2116,3.2117,3.2117,3.2117,3.2117,3.191,3.1932,3.1981,3.2028,3.2057,3.2097,3.213,3.2159,3.2192,3.219,3.219,3.2181,3.2065,3.2037,3.2122,3.2121,3.2121,3.212,3.212,3.2037,3.2009,3.2085,3.2116,3.2172,3.2222,3.2226,3.2286,3.231,3.2339,3.2325,3.2239,3.2233,3.2223,3.22,3.2323,3.2323,3.2323,3.2323,3.2102,3.21,3.218,3.2228,3.2276,3.2289,3.2375,3.2402,3.2424,3.244,3.2422,3.2391,3.2382,3.2381,3.2369,3.2347,3.2504,3.2504,3.2505,3.2181,3.2184,3.2257,3.2281,3.2326,3.2364,3.2445,3.2501,3.252,3.2512,3.2453,3.2445,3.2395,3.2378,3.2368,3.2348,3.2308,0,0]}]]